Other Public Products
Issued by NWS Grand Forks, ND

Home | Current Version | Previous Version | Graphics & Text | Print | Product List | Glossary On
Versions: 1 2 3 4 5 6 7 8 9 10 11 12 13 14 15 16 17 18 19 20 21 22 23 24 25 26 27 28 29 30 31 32 33 34 35 36 37 38 39 40 41 42 43 44 45 46 47 48 49 50
000
FPUS83 KFGF 281231
OPUFGF
PRAIRIE TO PINES WEATHER ROUNDUP
NATIONAL WEATHER SERVICE EASTERN NORTH DAKOTA/GRAND FORKS ND
600 AM CST SUN DEC 28 2014

 **SATELLITE DATA USED TO AUGMENT SKY COVER AT AUTOMATED STATIONS**
 *****  WEATHER ACROSS EASTERN NORTH DAKOTA  *****

CITY           SKY/WX    TMP DP  RH WIND       PRES   REMARKS
GRAND FORKS    CLEAR     -7 -12  79 N12       30.24R WCI -26
6HR MIN TEMP:  -7; 6HR MAX TEMP:   8;

GRAND FORKS AF CLEAR     -7 -11  80 N12       30.24R WCI -26
GRAND CITY NWS   N/A     -8 N/A N/A N7          N/A  WCI -22
BUXTON           N/A     -3  -9  77 N9          N/A  WCI -19
DEVILS LAKE    CLOUDY     0  -8  71 NE10      30.16R WCI -17
6HR MIN TEMP:   0; 6HR MAX TEMP:   5;

FARGO          CLOUDY     4  -3  73 N16G28    30.19R WCI -15
6HR MIN TEMP:   5; 6HR MAX TEMP:  23;

WAHPETON ARPT  CLOUDY    14   9  79 N16       30.14R WCI  -2
$$

 *****  WEATHER ACROSS CENTRAL AND WESTERN NORTH DAKOTA  *****

CITY           SKY/WX    TMP DP  RH WIND       PRES   REMARKS
JAMESTOWN      CLOUDY     7   3  84 NE12      30.12R WCI  -8
6HR MIN TEMP:   7; 6HR MAX TEMP:  21; 6HR PCP: TRACE;

BISMARCK       LGT SNOW  14  11  87 E10       30.08R FOG     WCI   1
6HR MIN TEMP:  14; 6HR MAX TEMP:  17; 6HR PCP:  0.01;

MINOT          CLOUDY    -4 -10  75 N9        30.12R WCI -20
6HR MIN TEMP:  -4; 6HR MAX TEMP:  10; 6HR PCP: TRACE;

MINOT AFB      CLOUDY    -6 -11  81 N7        30.14R WCI -21
6HR MIN TEMP:  -6; 6HR MAX TEMP:   7; 6HR PCP: TRACE;

GARRISON         N/A      9   5  84 E6        30.07R WCI  -1
6HR MIN TEMP:   9; 6HR MAX TEMP:  15;

WILLISTON      CLOUDY    13   8  81 NE9       30.04S WCI   1
6HR MIN TEMP:  13; 6HR MAX TEMP:  17;

DICKINSON      CLOUDY    19  14  81 E10       29.93F WCI   7
6HR MIN TEMP:  18; 6HR MAX TEMP:  21;

HETTINGER      PTCLDY     6   2  83 CALM      29.94F
6HR MIN TEMP:   3; 6HR MAX TEMP:  18;

$$

 *****  OTHER OBSERVATIONS NORTHEAST NORTH DAKOTA  *****

CITY           SKY/WX    TMP DP  RH WIND       PRES   REMARKS
WALHALLA         N/A    -11 -15  84 NW8       30.26R WCI -28
LANGDON        CLOUDY    -8 -11  84 N10       30.16R WCI -26
CAVALIER       FAIR      -9 -13  84 N7        30.26R WCI -24
GRAFTON        NOT AVBL
CANDO          CLOUDY     0  -4  85 NE5       30.19R WCI -10
FORT TOTTEN    NOT AVBL
ROLLA          FAIR      -9 -13  84 NE6       30.15R WCI -23
RUGBY          CLOUDY     0  -2  92 E7        30.16R WCI -13
 ***** THE ABOVE OBSERVATIONS ARE NON NWS ARE NOT QUALITY
        CONTROLLED AND MAY MIS-REPORT RAIN FOR SNOW...
$$

 *****  OTHER OBSERVATIONS SOUTHEAST NORTH DAKOTA *****

CITY           SKY/WX    TMP DP  RH WIND       PRES   REMARKS
COOPERSTOWN    NOT AVBL
VALLEY CITY    FLURRIES   5   5 100 NE13      30.15R WCI -12
OAKES          FLURRIES  10  10 100 NE15      30.12R WCI  -6
GWINNER        CLOUDY    12  10  92 N18       30.14R WCI  -5
SHEYENNE NWR     N/A      8   3  78 NE12      29.95S WCI  -7
BUFFALO        NOT AVBL
WYNDMERE         N/A     10   7  85 VRB12       N/A  WCI  -4
 ***** THE ABOVE OBSERVATIONS ARE NON NWS ARE NOT QUALITY
       CONTROLLED AND MAY MIS-REPORT RAIN FOR SNOW...
$$

  *****  WEATHER ACROSS NORTHERN MINNESOTA  *****

CITY           SKY/WX    TMP DP  RH WIND       PRES   REMARKS
FLAG ISLAND    CLEAR    -11 -17  77 NW12      30.16R WCI -31
WARROAD        CLEAR     -8 -13  77 NW8       30.18R WCI -23
ROSEAU         CLEAR     -8 -11  84 NW5       30.19R WCI -19
HALLOCK        CLEAR    -11 -17  77 N7        30.25R WCI -26
THF RVR FALLS  CLEAR     -6  -9  84 NW7       30.18R WCI -20
6HR MIN TEMP:  -6; 6HR MAX TEMP:  10;

HALSTAD          N/A     -2  -9  69 N12         N/A  WCI -19
FOSSTON        MOCLDY    -6  -9  84 CALM      30.16R
BAUDETTE       CLEAR     -4  -9  79 NW10      30.13R WCI -21
6HR MIN TEMP:  -4; 6HR MAX TEMP:   0;

WASKISH        CLOUDY     0  -6  78 CALM      30.14R
CROOKSTON      CLEAR     -8 -11  84 N14       30.23R WCI -28
$$
  *****  WEATHER ACROSS CENTRAL AND WEST MINNESOTA  *****

CITY           SKY/WX    TMP DP  RH WIND       PRES   REMARKS
BEMIDJI        PTCLDY    -2  -6  84 NW7       30.12R WCI -16
PARK RAPIDS    MOCLDY    14   7  73 N10       30.06R WCI   1
6HR MIN TEMP:  12; 6HR MAX TEMP:  21; 6HR PCP: TRACE;

WADENA         FLURRIES  16  12  86 N6        30.07R WCI   7
DETROIT LAKES  PTCLDY     7   3  85 N14       30.12R WCI -10
MOORHEAD       CLOUDY     7   3  85 N20       30.19R WCI -13
FERGUS FALLS   CLOUDY    18  10  73 N6        30.14R WCI   9
ELBOW LAKE     CLOUDY    16  15  94 NW10      30.08R WCI   4
6HR MIN TEMP:  13; 6HR MAX TEMP:  18;

MORRIS MN      PTCLDY    14  12  92 NW6       30.08R WCI   5
STAPLES        CLOUDY    18  14  86 N10       30.06R WCI   6
WHEATON        CLOUDY    14  12  92 N10G17    30.14R WCI   1
$$
  *****  WEATHER ELSEWHERE ACROSS MINNESOTA  *****

CITY           SKY/WX    TMP DP  RH WIND       PRES   REMARKS
DULUTH         FLURRIES  16   9  74 NW8       30.01R WCI   5
6HR MIN TEMP:  16; 6HR MAX TEMP:  19; 6HR PCP: TRACE;

INTRNTL FALLS  MOCLDY    -5  -9  83 NW7       30.11R WCI -19
6HR MIN TEMP:  -4; 6HR MAX TEMP:   7;

ELY            CLEAR      1  -2  85 W8        30.03R WCI -12
CLOQUET        CLOUDY    16   9  73 NW8       30.04R WCI   5
BRAINERD       PTCLDY    17  11  77 N9        30.07R WCI   6
6HR MIN TEMP:  19; 6HR MAX TEMP:  21; 6HR PCP: TRACE;

HIBBING        PTCLDY     7  -1  70 NW13      30.05R WCI  -9
6HR MIN TEMP:   8; 6HR MAX TEMP:  18; 6HR PCP: TRACE;

ALEXANDRIA     CLOUDY    17  15  92 CALM      30.05R
6HR MIN TEMP:  12; 6HR MAX TEMP:  18;

SAINT CLOUD    CLOUDY    18  12  77 SW3       30.07R
6HR MIN TEMP:  14; 6HR MAX TEMP:  21;

MINNEAPOLIS    PTCLDY    10   6  84 CALM      30.10S
6HR MIN TEMP:  10; 6HR MAX TEMP:  12;

$$

  *****  WEATHER ACROSS SOUTH DAKOTA  *****

CITY           SKY/WX    TMP DP  RH WIND       PRES   REMARKS
SIOUX FALLS    MOCLDY     0  -4  83 CALM      30.09R
6HR MIN TEMP:  -2; 6HR MAX TEMP:   5;

BROOKINGS      NOT AVBL
WATERTOWN      CLOUDY     5   2  87 CALM      30.05R
6HR MIN TEMP:   1; 6HR MAX TEMP:   9;

HURON          CLEAR      1  -3  83 CALM      30.09S
6HR MIN TEMP:  -1; 6HR MAX TEMP:  10;

SISSETON         N/A     18  16  92 N14       30.10R WCI   4
ABERDEEN       CLOUDY    14  11  87 NW6       30.09R WCI   5
6HR MIN TEMP:   9; 6HR MAX TEMP:  14;

MITCHELL       PTCLDY     4   2  91 CALM      30.10R
PIERRE         CLEAR      4   2  91 NE5       30.03S WCI  -5
6HR MIN TEMP:   4; 6HR MAX TEMP:  16;

MOBRIDGE       MOCLDY    12   8  84 E7        30.01S WCI   1
RAPID CITY     PTCLDY    11   4  73 CALM      29.93F
6HR MIN TEMP:   6; 6HR MAX TEMP:  17;

$$

  *****  SOME WEATHER IN NEARBY STATES *****

CITY           SKY/WX    TMP DP  RH WIND       PRES   REMARKS
GLASGOW MT     CLOUDY    18  15  88 E17       29.94S WCI   3
6HR MIN TEMP:  18; 6HR MAX TEMP:  22;

GREAT FALLS MT CLOUDY    26  21  81 NW7       29.81R WCI  18
6HR MIN TEMP:  25; 6HR MAX TEMP:  29; 6HR PCP: TRACE;

CHEYENNE WY    CLOUDY    16   3  56 SW6       29.89F WCI   7
6HR MIN TEMP:  12; 6HR MAX TEMP:  20;

SCOTTSBLUFF NE CLEAR     -1  -5  82 CALM      29.97F
6HR MIN TEMP:  -4; 6HR MAX TEMP:   7;

OMAHA NE       CLEAR     17  14  88 S7        30.15F WCI   8
6HR MIN TEMP:  16; 6HR MAX TEMP:  20;

DES MOINES IA  CLEAR     16  12  84 S5        30.16F WCI   9
6HR MIN TEMP:  16; 6HR MAX TEMP:  19;

DAVENPORT IA   CLEAR     17  13  84 W7        30.18S WCI   8
6HR MIN TEMP:  17; 6HR MAX TEMP:  21;

CHICAGO IL     PTCLDY    23  18  81 W7        30.15R WCI  15
6HR MIN TEMP:  23; 6HR MAX TEMP:  31;

EAU CLAIRE WI  PTCLDY     8   5  87 SW5       30.09S WCI   0
6HR MIN TEMP:   8; 6HR MAX TEMP:  12;

LA CROSSE WI   CLEAR     14   8  77 S6        30.14S WCI   5
6HR MIN TEMP:  13; 6HR MAX TEMP:  16;

$$

  *****  SOME NATIONAL WEATHER *****

CITY           SKY/WX    TMP DP  RH WIND       PRES   REMARKS



USA.gov is the U.S. government's official web portal to all federal, state and local government web resources and services.